When you browse on this site, cookies collect data to enhance your experience and personalize the content and advertising you see.
Visit our Privacy Policy to learn more. By continuing to use the site, you agree to this use of cookies and data.
  • In Lithuania
  • List of Countries
  • For 7 days
  • Water Temperature
  • Satellite Maps
  • Weather Map
  • Weather Widgets
  • user-avatar
    Login

    Hourly Weather My Tho

    Today, 21 April, Sunday

    Time Temperature Precipitation Wind Pressure Humidity
    00:00 +30°C° 0 mm 2 mps 755 mmHg 72%
    01:00 +29°C° 0 mm 1 mps 755 mmHg 74%
    02:00 +29°C° 0 mm 1 mps 755 mmHg 75%
    03:00 +29°C° 0 mm 1 mps 755 mmHg 76%
    04:00 +29°C° 0 mm 1 mps 754 mmHg 77%
    05:00 +29°C° 0 mm 1 mps 755 mmHg 74%
    06:00 +30°C° 0 mm 1 mps 755 mmHg 72%
    07:00 +31°C° 0 mm 1 mps 755 mmHg 67%
    08:00 +34°C° 0 mm 2 mps 755 mmHg 59%
    09:00 +36°C° 0 mm 2 mps 755 mmHg 51%
    10:00 +38°C° 0 mm 2 mps 755 mmHg 43%
    11:00 +39°C° 0 mm 2 mps 755 mmHg 40%
    12:00 +40°C° 0 mm 3 mps 754 mmHg 37%
    13:00 +42°C° 0 mm 3 mps 754 mmHg 34%
    14:00 +40°C° 0 mm 3 mps 753 mmHg 37%
    15:00 +40°C° 0 mm 4 mps 753 mmHg 39%
    16:00 +40°C° 0 mm 4 mps 752 mmHg 42%
    17:00 +37°C° 0 mm 4 mps 753 mmHg 49%
    18:00 +35°C° 0 mm 4 mps 753 mmHg 56%
    19:00 +33°C° 0 mm 3 mps 753 mmHg 62%
    20:00 +31°C° 0 mm 3 mps 753 mmHg 65%
    21:00 +31°C° 0 mm 3 mps 754 mmHg 67%
    22:00 +30°C° 0 mm 2 mps 754 mmHg 70%
    23:00 +30°C° 0 mm 2 mps 754 mmHg 72%

    Tomorrow, 22 April, Monday

    Time Temperature Precipitation Wind Pressure Humidity
    00:00 +29°C° 0 mm 1 mps 754 mmHg 74%
    01:00 +29°C° 0 mm 1 mps 754 mmHg 76%
    02:00 +29°C° 0 mm 1 mps 754 mmHg 77%
    03:00 +29°C° 0 mm 1 mps 754 mmHg 78%
    04:00 +27°C° 0 mm 0 mps 754 mmHg 79%
    05:00 +29°C° 0 mm 1 mps 754 mmHg 76%
    06:00 +30°C° 0 mm 1 mps 754 mmHg 73%
    07:00 +31°C° 0 mm 2 mps 755 mmHg 69%
    08:00 +34°C° 0 mm 2 mps 755 mmHg 61%
    09:00 +36°C° 0 mm 3 mps 755 mmHg 52%
    10:00 +38°C° 0 mm 3 mps 756 mmHg 44%
    11:00 +39°C° 0 mm 3 mps 755 mmHg 40%
    12:00 +40°C° 0 mm 4 mps 755 mmHg 37%
    13:00 +41°C° 0 mm 4 mps 754 mmHg 34%
    14:00 +41°C° 0 mm 4 mps 754 mmHg 35%
    15:00 +40°C° 0 mm 4 mps 753 mmHg 37%
    16:00 +40°C° 0 mm 4 mps 753 mmHg 38%
    17:00 +37°C° 0 mm 4 mps 753 mmHg 47%
    18:00 +35°C° 0 mm 3 mps 754 mmHg 55%
    19:00 +33°C° 0 mm 3 mps 754 mmHg 64%
    20:00 +33°C° 0 mm 3 mps 755 mmHg 67%
    21:00 +31°C° 0 mm 3 mps 755 mmHg 70%
    22:00 +31°C° 0 mm 2 mps 756 mmHg 73%
    23:00 +31°C° 0 mm 2 mps 756 mmHg 75%

    Day after tomorrow, 23 April, Tuesday

    Time Temperature Precipitation Wind Pressure Humidity
    00:00 +30°C° 0 mm 2 mps 755 mmHg 76%
    01:00 +30°C° 0 mm 2 mps 755 mmHg 78%
    02:00 +30°C° 0 mm 1 mps 755 mmHg 80%
    03:00 +30°C° 0 mm 1 mps 755 mmHg 81%
    04:00 +28°C° 0 mm 0 mps 754 mmHg 83%
    05:00 +30°C° 0.2 mm 1 mps 755 mmHg 80%
    06:00 +31°C° 0.2 mm 1 mps 755 mmHg 78%
    07:00 +32°C° 0.2 mm 1 mps 756 mmHg 76%
    08:00 +34°C° 0 mm 2 mps 756 mmHg 66%
    09:00 +36°C° 0 mm 2 mps 756 mmHg 57%
    10:00 +38°C° 0 mm 3 mps 757 mmHg 48%
    11:00 +39°C° 0 mm 3 mps 756 mmHg 43%
    12:00 +40°C° 0 mm 3 mps 755 mmHg 38%
    13:00 +42°C° 0 mm 4 mps 755 mmHg 33%
    14:00 +42°C° 0 mm 4 mps 754 mmHg 34%
    15:00 +41°C° 0 mm 4 mps 753 mmHg 35%
    16:00 +41°C° 0 mm 4 mps 753 mmHg 37%
    17:00 +38°C° 0 mm 4 mps 753 mmHg 46%
    18:00 +36°C° 0 mm 4 mps 754 mmHg 56%
    19:00 +34°C° 0 mm 4 mps 754 mmHg 65%
    20:00 +33°C° 0 mm 4 mps 755 mmHg 68%
    21:00 +33°C° 0 mm 4 mps 756 mmHg 71%
    22:00 +33°C° 0 mm 4 mps 756 mmHg 74%
    23:00 +33°C° 0 mm 3 mps 756 mmHg 73%

    24 April, Wednesday

    Time Temperature Precipitation Wind Pressure Humidity
    00:00 +31°C° 0 mm 3 mps 756 mmHg 73%
    01:00 +31°C° 0 mm 3 mps 755 mmHg 72%
    02:00 +31°C° 0 mm 3 mps 755 mmHg 74%
    03:00 +30°C° 0 mm 2 mps 755 mmHg 76%
    04:00 +30°C° 0 mm 2 mps 755 mmHg 77%
    05:00 +31°C° 0 mm 2 mps 755 mmHg 75%
    06:00 +31°C° 0 mm 3 mps 756 mmHg 73%
    07:00 +33°C° 0 mm 3 mps 756 mmHg 71%
    08:00 +34°C° 0 mm 3 mps 756 mmHg 62%
    09:00 +36°C° 0 mm 3 mps 757 mmHg 53%
    10:00 +38°C° 0 mm 4 mps 757 mmHg 44%
    11:00 +40°C° 0 mm 4 mps 756 mmHg 41%
    12:00 +41°C° 0 mm 4 mps 756 mmHg 37%
    13:00 +42°C° 0 mm 4 mps 755 mmHg 34%
    14:00 +41°C° 0 mm 4 mps 754 mmHg 36%
    15:00 +40°C° 0 mm 4 mps 753 mmHg 39%
    16:00 +40°C° 0 mm 4 mps 753 mmHg 42%
    17:00 +37°C° 0 mm 4 mps 753 mmHg 49%
    18:00 +35°C° 0 mm 4 mps 754 mmHg 57%
    19:00 +33°C° 0 mm 4 mps 754 mmHg 65%
    20:00 +33°C° 0 mm 3 mps 755 mmHg 68%
    21:00 +33°C° 0 mm 3 mps 755 mmHg 71%
    22:00 +31°C° 0 mm 3 mps 756 mmHg 73%
    23:00 +31°C° 0 mm 2 mps 756 mmHg 74%

    25 April, Thursday

    Time Temperature Precipitation Wind Pressure Humidity
    00:00 +31°C° 0 mm 2 mps 755 mmHg 75%
    01:00 +31°C° 0 mm 1 mps 755 mmHg 75%
    02:00 +31°C° 0 mm 1 mps 755 mmHg 76%
    03:00 +31°C° 0 mm 1 mps 755 mmHg 77%
    04:00 +30°C° 0 mm 1 mps 754 mmHg 78%
    05:00 +31°C° 0 mm 1 mps 755 mmHg 76%
    06:00 +31°C° 0 mm 2 mps 755 mmHg 73%
    07:00 +32°C° 0 mm 2 mps 756 mmHg 71%
    08:00 +34°C° 0 mm 2 mps 756 mmHg 65%
    09:00 +35°C° 0 mm 2 mps 756 mmHg 58%
    10:00 +37°C° 0 mm 3 mps 757 mmHg 52%
    11:00 +38°C° 0 mm 3 mps 756 mmHg 49%
    12:00 +38°C° 0 mm 3 mps 755 mmHg 46%
    13:00 +39°C° 0 mm 3 mps 754 mmHg 42%
    14:00 +39°C° 0 mm 3 mps 754 mmHg 43%
    15:00 +39°C° 0 mm 3 mps 753 mmHg 43%
    16:00 +39°C° 0 mm 3 mps 753 mmHg 43%
    17:00 +37°C° 0 mm 3 mps 753 mmHg 51%
    18:00 +35°C° 0 mm 3 mps 754 mmHg 59%
    19:00 +34°C° 0 mm 3 mps 754 mmHg 66%
    20:00 +33°C° 0.1 mm 3 mps 755 mmHg 70%
    21:00 +33°C° 0.1 mm 3 mps 755 mmHg 74%
    22:00 +31°C° 0.1 mm 3 mps 756 mmHg 77%
    23:00 +31°C° 0.1 mm 2 mps 755 mmHg 78%

    26 April, Friday

    Time Temperature Precipitation Wind Pressure Humidity
    00:00 +30°C° 0.1 mm 2 mps 755 mmHg 79%
    01:00 +30°C° 0.1 mm 1 mps 755 mmHg 81%
    02:00 +30°C° 0.4 mm 1 mps 755 mmHg 81%
    03:00 +29°C° 0.4 mm 1 mps 755 mmHg 82%
    04:00 +29°C° 0.4 mm 1 mps 755 mmHg 82%
    05:00 +30°C° 0.7 mm 1 mps 755 mmHg 80%
    06:00 +30°C° 0.7 mm 1 mps 756 mmHg 77%
    07:00 +31°C° 0.7 mm 1 mps 756 mmHg 74%
    08:00 +34°C° 0.1 mm 2 mps 756 mmHg 66%
    09:00 +35°C° 0.1 mm 2 mps 756 mmHg 58%
    10:00 +37°C° 0.1 mm 2 mps 756 mmHg 50%
    11:00 +38°C° 0 mm 2 mps 756 mmHg 49%
    12:00 +38°C° 0 mm 2 mps 755 mmHg 48%
    13:00 +38°C° 0 mm 2 mps 754 mmHg 47%
    14:00 +38°C° 0 mm 2 mps 754 mmHg 46%
    15:00 +38°C° 0 mm 2 mps 754 mmHg 45%
    16:00 +39°C° 0 mm 2 mps 753 mmHg 43%
    17:00 +37°C° 0 mm 2 mps 754 mmHg 48%
    18:00 +35°C° 0 mm 3 mps 754 mmHg 52%
    19:00 +34°C° 0 mm 3 mps 755 mmHg 56%
    20:00 +33°C° 0 mm 3 mps 755 mmHg 58%
    21:00 +33°C° 0 mm 3 mps 756 mmHg 60%
    22:00 +31°C° 0 mm 2 mps 756 mmHg 61%
    23:00 +31°C° 0 mm 2 mps 756 mmHg 63%
    Show more